N252JR PAFA-PANC

Flight info

Callsign N252JR
Flight time 1h 12m
Altitude 14000
Route DCT GLOWS V438 BGQ DCT
Aircraft BE20/L-SBGRY/EB1

Departure

Time 2026-04-21 23:23
Airport Fairbanks International Airport (PAFA)

Arrival

Time 2026-04-22 00:35
Airport Ted Stevens Anchorage International Airport (PANC)
Time Latitude Longitude Altitude Speed Heading
2026-04-21 21:42 64.80971 -147.88155 439 ft 0 kts 38°
2026-04-21 22:30 64.80971 -147.88154 438 ft 0 kts 38°
2026-04-21 22:31 64.80971 -147.88153 438 ft 0 kts 38°
2026-04-21 22:31 64.80972 -147.88153 438 ft 0 kts 38°
2026-04-21 22:33 64.80972 -147.88152 438 ft 0 kts 38°
2026-04-21 22:34 64.80973 -147.88152 438 ft 0 kts 38°
2026-04-21 22:34 64.80973 -147.88151 438 ft 0 kts 38°
2026-04-21 22:36 64.80973 -147.88150 438 ft 0 kts 37°
2026-04-21 22:37 64.80974 -147.88150 438 ft 0 kts 37°
2026-04-21 22:38 64.80974 -147.88149 438 ft 0 kts 37°
2026-04-21 22:39 64.80974 -147.88148 438 ft 0 kts 37°
2026-04-21 22:40 64.80975 -147.88148 438 ft 0 kts 37°
2026-04-21 22:42 64.80975 -147.88147 438 ft 0 kts 37°
2026-04-21 22:43 64.80975 -147.88146 438 ft 0 kts 37°
2026-04-21 22:43 64.80976 -147.88146 438 ft 0 kts 37°
2026-04-21 22:45 64.80976 -147.88145 438 ft 0 kts 36°
2026-04-21 22:47 64.80977 -147.88144 438 ft 0 kts 36°
2026-04-21 22:49 64.80977 -147.88143 438 ft 0 kts 36°
2026-04-21 22:50 64.80978 -147.88143 438 ft 0 kts 36°
2026-04-21 22:51 64.80978 -147.88142 438 ft 0 kts 36°
2026-04-21 22:52 64.80978 -147.88141 438 ft 0 kts 35°
2026-04-21 22:53 64.80979 -147.88141 438 ft 0 kts 35°
2026-04-21 22:53 64.80979 -147.88140 438 ft 0 kts 35°
2026-04-21 22:54 64.80980 -147.88139 438 ft 0 kts 35°
2026-04-21 22:55 64.80980 -147.88138 438 ft 0 kts 35°
2026-04-21 22:56 64.80981 -147.88138 438 ft 0 kts 35°
2026-04-21 22:56 64.80981 -147.88137 438 ft 0 kts 34°
2026-04-21 22:57 64.80981 -147.88136 438 ft 0 kts 34°
2026-04-21 22:57 64.80982 -147.88136 438 ft 0 kts 34°
2026-04-21 22:57 64.80982 -147.88135 438 ft 0 kts 34°
2026-04-21 22:58 64.80983 -147.88134 438 ft 0 kts 34°
2026-04-21 22:59 64.80983 -147.88133 438 ft 0 kts 34°
2026-04-21 22:59 64.80984 -147.88133 438 ft 0 kts 34°
2026-04-21 23:00 64.80984 -147.88132 438 ft 0 kts 34°
2026-04-21 23:01 64.80985 -147.88131 438 ft 0 kts 33°
2026-04-21 23:02 64.80985 -147.88130 438 ft 0 kts 33°
2026-04-21 23:02 64.80986 -147.88130 438 ft 0 kts 33°
2026-04-21 23:02 64.80986 -147.88129 438 ft 0 kts 33°
2026-04-21 23:03 64.80987 -147.88128 438 ft 0 kts 33°
2026-04-21 23:04 64.80987 -147.88127 438 ft 0 kts 33°
2026-04-21 23:05 64.80988 -147.88127 438 ft 0 kts 33°
2026-04-21 23:06 64.80988 -147.88126 438 ft 0 kts 33°
2026-04-21 23:08 64.80989 -147.88125 438 ft 0 kts 33°
2026-04-21 23:09 64.80990 -147.88123 438 ft 0 kts 32°
2026-04-21 23:12 64.80990 -147.88124 438 ft 0 kts 33°
2026-04-21 23:13 64.80989 -147.88124 438 ft 0 kts 33°
2026-04-21 23:15 64.80990 -147.88124 438 ft 1 kts 33°
2026-04-21 23:15 64.80996 -147.88090 438 ft 3 kts 77°
2026-04-21 23:15 64.80985 -147.88057 438 ft 4 kts 179°
2026-04-21 23:16 64.80933 -147.88092 438 ft 11 kts 197°
2026-04-21 23:16 64.80868 -147.88118 438 ft 7 kts 176°
2026-04-21 23:16 64.80833 -147.88084 438 ft 4 kts 140°
2026-04-21 23:16 64.80825 -147.88067 438 ft 0 kts 136°
2026-04-21 23:17 64.80823 -147.88064 438 ft 1 kts 136°
2026-04-21 23:17 64.80813 -147.88041 438 ft 2 kts 136°
2026-04-21 23:17 64.80801 -147.88013 438 ft 3 kts 135°
2026-04-21 23:17 64.80787 -147.87992 438 ft 3 kts 159°
2026-04-21 23:18 64.80746 -147.88013 438 ft 9 kts 218°
2026-04-21 23:18 64.80689 -147.88126 438 ft 12 kts 220°
2026-04-21 23:18 64.80620 -147.88259 438 ft 14 kts 219°
2026-04-21 23:18 64.80549 -147.88388 438 ft 11 kts 218°
2026-04-21 23:19 64.80501 -147.88407 438 ft 0 kts 154°
2026-04-21 23:19 64.80500 -147.88407 438 ft 0 kts 154°
2026-04-21 23:20 64.80500 -147.88406 438 ft 0 kts 154°
2026-04-21 23:22 64.80499 -147.88405 438 ft 1 kts 154°
2026-04-21 23:22 64.80477 -147.88319 438 ft 17 kts 96°
2026-04-21 23:22 64.80599 -147.87969 438 ft 41 kts 37°
2026-04-21 23:23 64.80986 -147.87267 439 ft 102 kts 37°
2026-04-21 23:23 64.81667 -147.86019 630 ft 132 kts 33°
2026-04-21 23:23 64.82410 -147.84622 1078 ft 140 kts 37°
2026-04-21 23:23 64.83035 -147.82914 1580 ft 146 kts 50°
2026-04-21 23:24 64.83693 -147.80719 1914 ft 176 kts 52°
2026-04-21 23:24 64.84432 -147.78232 2274 ft 192 kts 52°
2026-04-21 23:24 64.85346 -147.75932 2598 ft 191 kts 26°
2026-04-21 23:24 64.86560 -147.74900 2947 ft 187 kts
2026-04-21 23:25 64.87830 -147.74128 3276 ft 186 kts 356°
2026-04-21 23:25 64.89029 -147.74721 3628 ft 171 kts 328°
2026-04-21 23:25 64.89985 -147.76219 3987 ft 161 kts 314°
2026-04-21 23:25 64.90432 -147.78558 4320 ft 162 kts 282°
2026-04-21 23:26 64.90134 -147.81180 4652 ft 177 kts 244°
2026-04-21 23:26 64.89414 -147.83468 4999 ft 172 kts 224°
2026-04-21 23:26 64.88419 -147.84975 5339 ft 168 kts 214°
2026-04-21 23:26 64.87392 -147.86188 5662 ft 164 kts 211°
2026-04-21 23:27 64.86368 -147.87312 5983 ft 160 kts 211°
2026-04-21 23:27 64.85362 -147.88382 6305 ft 157 kts 211°
2026-04-21 23:27 64.84375 -147.89419 6626 ft 154 kts 211°
2026-04-21 23:27 64.83403 -147.90427 6949 ft 151 kts 211°
2026-04-21 23:28 64.82445 -147.91408 7272 ft 149 kts 211°
2026-04-21 23:28 64.81503 -147.92365 7595 ft 147 kts 211°
2026-04-21 23:28 64.80581 -147.93296 7914 ft 145 kts 211°
2026-04-21 23:28 64.79660 -147.94215 8237 ft 143 kts 211°
2026-04-21 23:29 64.78742 -147.95127 8565 ft 141 kts 211°
2026-04-21 23:29 64.77844 -147.96011 8870 ft 140 kts 211°
2026-04-21 23:29 64.76933 -147.96911 9098 ft 143 kts 211°
2026-04-21 23:29 64.76012 -147.97822 9354 ft 144 kts 211°
2026-04-21 23:30 64.75076 -147.98822 9606 ft 155 kts 211°
2026-04-21 23:30 64.74059 -147.99901 9789 ft 159 kts 211°
2026-04-21 23:30 64.73057 -148.00961 10006 ft 158 kts 211°
2026-04-21 23:30 64.72065 -148.02020 10226 ft 158 kts 210°
2026-04-21 23:31 64.71056 -148.03121 10455 ft 158 kts 211°
2026-04-21 23:31 64.70069 -148.04211 10677 ft 158 kts 210°
2026-04-21 23:31 64.69080 -148.05312 10901 ft 154 kts 211°
2026-04-21 23:31 64.68130 -148.06377 11120 ft 150 kts 210°
2026-04-21 23:32 64.67196 -148.07433 11342 ft 148 kts 211°
2026-04-21 23:32 64.66277 -148.08482 11561 ft 146 kts 211°
2026-04-21 23:32 64.65378 -148.09514 11733 ft 147 kts 210°
2026-04-21 23:32 64.64461 -148.10583 11889 ft 149 kts 210°
2026-04-21 23:33 64.63503 -148.11707 12052 ft 160 kts 210°
2026-04-21 23:33 64.62468 -148.12946 12217 ft 170 kts 210°
2026-04-21 23:33 64.61408 -148.14232 12373 ft 177 kts 210°
2026-04-21 23:33 64.60285 -148.15613 12531 ft 183 kts 210°
2026-04-21 23:34 64.59152 -148.17021 12685 ft 187 kts 211°
2026-04-21 23:34 64.58013 -148.18451 12836 ft 189 kts 211°
2026-04-21 23:34 64.56852 -148.19921 12988 ft 191 kts 211°
2026-04-21 23:34 64.55667 -148.21368 13137 ft 194 kts 205°
2026-04-21 23:35 64.54333 -148.22002 13301 ft 199 kts 191°
2026-04-21 23:35 64.52943 -148.22202 13456 ft 201 kts 189°
2026-04-21 23:35 64.51532 -148.22433 13613 ft 201 kts 191°
2026-04-21 23:35 64.50159 -148.22787 13766 ft 201 kts 193°
2026-04-21 23:36 64.48756 -148.23272 13913 ft 202 kts 195°
2026-04-21 23:36 64.47375 -148.23836 14002 ft 206 kts 196°
2026-04-21 23:36 64.45950 -148.24473 14015 ft 212 kts 196°
2026-04-21 23:36 64.44487 -148.25160 14016 ft 217 kts 197°
2026-04-21 23:37 64.43013 -148.25991 14015 ft 220 kts 199°
2026-04-21 23:37 64.41528 -148.26925 14016 ft 222 kts 201°
2026-04-21 23:37 64.40042 -148.27895 14014 ft 222 kts 201°
2026-04-21 23:37 64.39034 -148.28562 14014 ft 223 kts 201°
2026-04-21 23:38 64.37541 -148.29552 14013 ft 224 kts 201°
2026-04-21 23:38 64.36034 -148.30549 14013 ft 225 kts 201°
2026-04-21 23:38 64.34526 -148.31544 14013 ft 226 kts 201°
2026-04-21 23:38 64.33016 -148.32536 14013 ft 226 kts 201°
2026-04-21 23:39 64.31507 -148.33526 14013 ft 226 kts 201°
2026-04-21 23:39 64.29984 -148.34521 14013 ft 227 kts 201°
2026-04-21 23:39 64.28466 -148.35512 14013 ft 227 kts 201°
2026-04-21 23:39 64.26941 -148.36486 14013 ft 227 kts 200°
2026-04-21 23:40 64.25410 -148.37394 14014 ft 228 kts 198°
2026-04-21 23:40 64.23865 -148.38181 14015 ft 229 kts 199°
2026-04-21 23:40 64.22292 -148.38939 14020 ft 232 kts 201°
2026-04-21 23:40 64.20734 -148.39925 14023 ft 232 kts 204°
2026-04-21 23:41 64.19188 -148.41037 14017 ft 234 kts 205°
2026-04-21 23:41 64.17630 -148.42179 14017 ft 234 kts 202°
2026-04-21 23:41 64.16081 -148.43299 14011 ft 235 kts 201°
2026-04-21 23:41 64.14499 -148.44409 14014 ft 240 kts 201°
2026-04-21 23:42 64.12889 -148.45505 14014 ft 243 kts 200°
2026-04-21 23:42 64.11260 -148.46586 14014 ft 245 kts 200°
2026-04-21 23:42 64.09803 -148.47538 14013 ft 246 kts 200°
2026-04-21 23:42 64.08423 -148.48438 14013 ft 247 kts 200°
2026-04-21 23:43 64.06780 -148.49498 14012 ft 243 kts 200°
2026-04-21 23:43 64.05181 -148.50525 14011 ft 240 kts 199°
2026-04-21 23:43 64.03559 -148.51561 14013 ft 238 kts 200°
2026-04-21 23:43 64.01988 -148.52566 14012 ft 237 kts 200°
2026-04-21 23:44 64.00381 -148.53596 14012 ft 236 kts 200°
2026-04-21 23:44 63.98821 -148.54593 14013 ft 235 kts 200°
2026-04-21 23:44 63.97247 -148.55598 14013 ft 235 kts 200°
2026-04-21 23:44 63.95678 -148.56598 14013 ft 234 kts 200°
2026-04-21 23:45 63.94111 -148.57598 14013 ft 234 kts 200°
2026-04-21 23:45 63.90977 -148.59589 14012 ft 233 kts 200°
2026-04-21 23:45 63.89413 -148.60580 14013 ft 233 kts 200°
2026-04-21 23:46 63.87852 -148.61565 14012 ft 233 kts 200°
2026-04-21 23:46 63.86295 -148.62545 14013 ft 232 kts 200°
2026-04-21 23:46 63.84739 -148.63525 14012 ft 232 kts 200°
2026-04-21 23:46 63.83186 -148.64507 14013 ft 232 kts 200°
2026-04-21 23:47 63.81631 -148.65487 14012 ft 232 kts 200°
2026-04-21 23:47 63.80079 -148.66461 14013 ft 231 kts 200°
2026-04-21 23:47 63.78919 -148.67190 14013 ft 231 kts 200°
2026-04-21 23:48 63.77399 -148.68143 14014 ft 232 kts 200°
2026-04-21 23:49 63.75872 -148.69098 14013 ft 229 kts 200°
2026-04-21 23:49 63.74318 -148.70068 14012 ft 227 kts 199°
2026-04-21 23:49 63.72817 -148.71021 14010 ft 228 kts 197°
2026-04-21 23:49 63.71277 -148.71997 14010 ft 231 kts 196°
2026-04-21 23:50 63.69691 -148.72989 14014 ft 235 kts 195°
2026-04-21 23:50 63.68390 -148.73798 14014 ft 237 kts 195°
2026-04-21 23:50 63.67578 -148.74295 14014 ft 238 kts 195°
2026-04-21 23:50 63.65955 -148.75298 14014 ft 239 kts 195°
2026-04-21 23:51 63.64893 -148.75958 14016 ft 239 kts 195°
2026-04-21 23:51 63.63287 -148.76953 14012 ft 239 kts 195°
2026-04-21 23:51 63.61688 -148.77944 14013 ft 238 kts 195°
2026-04-21 23:51 63.60095 -148.78929 14013 ft 237 kts 195°
2026-04-21 23:52 63.58501 -148.79914 14013 ft 237 kts 195°
2026-04-21 23:52 63.56911 -148.80896 14013 ft 237 kts 195°
2026-04-21 23:52 63.55327 -148.81872 14013 ft 237 kts 195°
2026-04-21 23:52 63.53748 -148.82845 14013 ft 236 kts 195°
2026-04-21 23:53 63.52159 -148.83824 14013 ft 236 kts 195°
2026-04-21 23:53 63.50578 -148.84796 14013 ft 236 kts 195°
2026-04-21 23:53 63.48988 -148.85773 14013 ft 236 kts 195°
2026-04-21 23:53 63.47400 -148.86747 14013 ft 236 kts 195°
2026-04-21 23:54 63.45817 -148.87717 14006 ft 236 kts 195°
2026-04-21 23:54 63.44219 -148.88695 13966 ft 238 kts 195°
2026-04-21 23:54 63.42619 -148.89674 13957 ft 238 kts 195°
2026-04-21 23:54 63.41004 -148.90661 13954 ft 238 kts 194°
2026-04-21 23:55 63.39407 -148.91636 13954 ft 238 kts 194°
2026-04-21 23:55 63.37814 -148.92556 13955 ft 238 kts 204°
2026-04-21 23:55 63.36205 -148.93488 13955 ft 237 kts 205°
2026-04-21 23:55 63.34616 -148.94456 13954 ft 236 kts 205°
2026-04-21 23:56 63.33015 -148.95447 13954 ft 236 kts 205°
2026-04-21 23:56 63.31436 -148.96424 13954 ft 236 kts 205°
2026-04-21 23:56 63.29837 -148.97409 13954 ft 236 kts 205°
2026-04-21 23:56 63.28273 -148.98368 13954 ft 236 kts 205°
2026-04-21 23:57 63.26692 -148.99333 13954 ft 236 kts 205°
2026-04-21 23:57 63.25091 -149.00318 13957 ft 235 kts 196°
2026-04-21 23:57 63.23524 -149.01342 13957 ft 236 kts 195°
2026-04-21 23:57 63.21930 -149.02275 13956 ft 237 kts 203°
2026-04-21 23:58 63.20341 -149.03164 13955 ft 236 kts 205°
2026-04-21 23:58 63.18751 -149.04102 13954 ft 236 kts 205°
2026-04-21 23:58 63.17169 -149.05054 13954 ft 236 kts 205°
2026-04-21 23:58 63.15587 -149.06010 13954 ft 236 kts 205°
2026-04-21 23:59 63.14011 -149.07027 13958 ft 236 kts 196°
2026-04-21 23:59 63.12422 -149.08005 13954 ft 238 kts 195°
2026-04-21 23:59 63.10815 -149.08955 13955 ft 240 kts 196°
2026-04-21 23:59 63.09195 -149.09903 13954 ft 241 kts 197°
2026-04-22 00:00 63.07570 -149.10855 13954 ft 242 kts 197°
2026-04-22 00:00 63.05940 -149.11816 13954 ft 243 kts 197°
2026-04-22 00:00 63.04304 -149.12784 13954 ft 244 kts 197°
2026-04-22 00:00 63.02664 -149.13755 13954 ft 245 kts 197°
2026-04-22 00:01 63.01008 -149.14739 13955 ft 248 kts 197°
2026-04-22 00:01 62.99334 -149.15732 13955 ft 251 kts 197°
2026-04-22 00:01 62.97630 -149.16741 13955 ft 254 kts 197°
2026-04-22 00:01 62.95900 -149.17765 13955 ft 255 kts 197°
2026-04-22 00:02 62.94185 -149.18778 13954 ft 256 kts 197°
2026-04-22 00:02 62.93016 -149.19467 13954 ft 257 kts 197°
2026-04-22 00:02 62.90686 -149.20841 13954 ft 257 kts 197°
2026-04-22 00:02 62.88955 -149.21859 13954 ft 257 kts 197°
2026-04-22 00:03 62.87200 -149.22891 13954 ft 258 kts 197°
2026-04-22 00:03 62.85475 -149.23904 13954 ft 258 kts 197°
2026-04-22 00:03 62.83733 -149.24925 13954 ft 258 kts 197°
2026-04-22 00:03 62.81996 -149.25942 13954 ft 258 kts 197°
2026-04-22 00:04 62.80267 -149.26955 13954 ft 258 kts 197°
2026-04-22 00:04 62.78536 -149.27969 13954 ft 258 kts 197°
2026-04-22 00:04 62.76808 -149.28977 13954 ft 257 kts 197°
2026-04-22 00:04 62.75074 -149.29987 13954 ft 257 kts 197°
2026-04-22 00:05 62.73345 -149.30984 13955 ft 256 kts 198°
2026-04-22 00:05 62.71625 -149.31962 13954 ft 255 kts 201°
2026-04-22 00:05 62.69915 -149.32925 13953 ft 253 kts 204°
2026-04-22 00:05 62.68212 -149.33901 13953 ft 253 kts 204°
2026-04-22 00:06 62.66520 -149.34889 13954 ft 252 kts 204°
2026-04-22 00:06 62.64829 -149.35880 13954 ft 252 kts 205°
2026-04-22 00:06 62.63701 -149.36541 13954 ft 252 kts 205°
2026-04-22 00:06 62.62011 -149.37528 13954 ft 252 kts 204°
2026-04-22 00:07 62.60316 -149.38514 13954 ft 252 kts 204°
2026-04-22 00:07 62.58622 -149.39497 13954 ft 252 kts 204°
2026-04-22 00:07 62.56929 -149.40477 13954 ft 252 kts 204°
2026-04-22 00:07 62.55238 -149.41453 13954 ft 252 kts 204°
2026-04-22 00:08 62.53544 -149.42428 13954 ft 252 kts 204°
2026-04-22 00:08 62.51847 -149.43402 13954 ft 252 kts 204°
2026-04-22 00:08 62.50153 -149.44374 13954 ft 252 kts 204°
2026-04-22 00:08 62.48457 -149.45346 13954 ft 252 kts 204°
2026-04-22 00:09 62.46759 -149.46316 13954 ft 252 kts 204°
2026-04-22 00:09 62.45069 -149.47281 13954 ft 252 kts 204°
2026-04-22 00:09 62.43370 -149.48250 13954 ft 252 kts 204°
2026-04-22 00:09 62.41673 -149.49217 13954 ft 252 kts 204°
2026-04-22 00:10 62.39985 -149.50175 13954 ft 252 kts 204°
2026-04-22 00:10 62.38279 -149.51107 13955 ft 252 kts 203°
2026-04-22 00:10 62.37157 -149.51710 13954 ft 252 kts 203°
2026-04-22 00:10 62.35460 -149.52615 13953 ft 252 kts 203°
2026-04-22 00:11 62.33756 -149.53516 13954 ft 252 kts 203°
2026-04-22 00:11 62.32051 -149.54415 13954 ft 253 kts 203°
2026-04-22 00:11 62.30334 -149.55321 13954 ft 253 kts 203°
2026-04-22 00:11 62.28638 -149.56281 13954 ft 252 kts 205°
2026-04-22 00:12 62.26947 -149.57291 13954 ft 252 kts 205°
2026-04-22 00:12 62.25257 -149.58306 13954 ft 252 kts 205°
2026-04-22 00:12 62.23557 -149.59318 13954 ft 253 kts 205°
2026-04-22 00:12 62.21862 -149.60314 13954 ft 253 kts 205°
2026-04-22 00:13 62.20166 -149.61298 13954 ft 253 kts 204°
2026-04-22 00:13 62.18468 -149.62272 13954 ft 253 kts 204°
2026-04-22 00:13 62.16774 -149.63234 13953 ft 249 kts 204°
2026-04-22 00:13 62.15138 -149.64143 13947 ft 237 kts 204°
2026-04-22 00:14 62.14009 -149.64767 13833 ft 235 kts 204°
2026-04-22 00:14 62.12422 -149.65661 13564 ft 237 kts 204°
2026-04-22 00:14 62.10823 -149.66568 13290 ft 238 kts 204°
2026-04-22 00:14 62.09219 -149.67476 13016 ft 239 kts 203°
2026-04-22 00:15 62.07609 -149.68381 12741 ft 239 kts 203°
2026-04-22 00:15 62.06002 -149.69280 12467 ft 239 kts 202°
2026-04-22 00:15 62.04411 -149.70166 12195 ft 239 kts 202°
2026-04-22 00:15 62.02792 -149.71064 11917 ft 238 kts 202°
2026-04-22 00:16 62.01192 -149.71951 11642 ft 237 kts 202°
2026-04-22 00:16 61.99620 -149.72820 11371 ft 236 kts 202°
2026-04-22 00:16 61.98030 -149.73699 11095 ft 234 kts 201°
2026-04-22 00:16 61.96477 -149.74551 10818 ft 227 kts 201°
2026-04-22 00:17 61.94964 -149.75378 10541 ft 222 kts 201°
2026-04-22 00:17 61.93479 -149.76195 10267 ft 223 kts 201°
2026-04-22 00:17 61.91953 -149.77045 9994 ft 229 kts 201°
2026-04-22 00:17 61.90395 -149.77911 9644 ft 234 kts 200°
2026-04-22 00:18 61.89288 -149.78527 9366 ft 238 kts 200°
2026-04-22 00:18 61.88195 -149.79133 9097 ft 240 kts 199°
2026-04-22 00:18 61.86586 -149.80017 8846 ft 237 kts 199°
2026-04-22 00:18 61.84995 -149.80885 8642 ft 236 kts 199°
2026-04-22 00:19 61.83397 -149.81635 8413 ft 234 kts 198°
2026-04-22 00:19 61.82340 -149.82187 8262 ft 232 kts 198°
2026-04-22 00:19 61.80778 -149.83052 8036 ft 230 kts 199°
2026-04-22 00:19 61.79245 -149.83987 7812 ft 229 kts 200°
2026-04-22 00:20 61.77716 -149.84950 7586 ft 228 kts 200°
2026-04-22 00:20 61.76206 -149.85914 7362 ft 228 kts 200°
2026-04-22 00:20 61.74693 -149.86894 7136 ft 227 kts 200°
2026-04-22 00:20 61.73181 -149.87889 6910 ft 227 kts 200°
2026-04-22 00:21 61.72281 -149.88489 6776 ft 227 kts 200°
2026-04-22 00:21 61.70768 -149.89508 6549 ft 226 kts 200°
2026-04-22 00:21 61.69699 -149.90236 6388 ft 226 kts 200°
2026-04-22 00:21 61.68210 -149.91263 6164 ft 226 kts 200°
2026-04-22 00:22 61.66712 -149.92310 5938 ft 226 kts 200°
2026-04-22 00:22 61.65221 -149.93365 5713 ft 226 kts 200°
2026-04-22 00:22 61.63740 -149.94426 5550 ft 224 kts 200°
2026-04-22 00:22 61.62276 -149.95483 5399 ft 222 kts 200°
2026-04-22 00:23 61.60827 -149.96537 5250 ft 221 kts 200°
2026-04-22 00:23 61.59366 -149.97608 5098 ft 220 kts 200°
2026-04-22 00:23 61.57930 -149.98667 4948 ft 220 kts 200°
2026-04-22 00:23 61.56525 -149.99701 4802 ft 220 kts 200°
2026-04-22 00:24 61.55084 -150.00774 4651 ft 219 kts 200°
2026-04-22 00:24 61.54068 -150.01536 4544 ft 217 kts 200°
2026-04-22 00:24 61.53118 -150.02251 4441 ft 214 kts 200°
2026-04-22 00:24 61.52910 -150.02407 4419 ft 214 kts 200°
2026-04-22 00:25 61.52329 -150.02823 4358 ft 212 kts 203°
2026-04-22 00:26 61.50935 -150.03697 4208 ft 208 kts 201°
2026-04-22 00:26 61.49553 -150.04532 4054 ft 206 kts 198°
2026-04-22 00:26 61.48202 -150.05495 3853 ft 204 kts 199°
2026-04-22 00:26 61.46871 -150.06530 3629 ft 203 kts 200°
2026-04-22 00:27 61.46044 -150.07192 3597 ft 175 kts 200°
2026-04-22 00:27 61.44952 -150.08080 3348 ft 162 kts 200°
2026-04-22 00:27 61.43895 -150.08944 3110 ft 163 kts 200°
2026-04-22 00:27 61.42859 -150.09789 2997 ft 159 kts 200°
2026-04-22 00:28 61.41824 -150.10623 2960 ft 160 kts 200°
2026-04-22 00:28 61.40790 -150.11458 2954 ft 159 kts 200°
2026-04-22 00:28 61.39741 -150.12191 2943 ft 159 kts 190°
2026-04-22 00:28 61.38656 -150.12090 2965 ft 160 kts 172°
2026-04-22 00:29 61.37547 -150.11544 2960 ft 162 kts 166°
2026-04-22 00:29 61.36828 -150.11105 2953 ft 156 kts 165°
2026-04-22 00:29 61.35809 -150.10439 2949 ft 151 kts 165°
2026-04-22 00:29 61.35156 -150.10011 2950 ft 149 kts 165°
2026-04-22 00:30 61.34148 -150.09370 2951 ft 150 kts 166°
2026-04-22 00:30 61.33155 -150.08771 2955 ft 148 kts 167°
2026-04-22 00:30 61.32203 -150.08237 3073 ft 126 kts 168°
2026-04-22 00:30 61.31381 -150.07806 3058 ft 123 kts 168°
2026-04-22 00:31 61.30576 -150.07395 2901 ft 116 kts 168°
2026-04-22 00:31 61.29784 -150.06974 2626 ft 115 kts 168°
2026-04-22 00:31 61.29274 -150.06687 2398 ft 114 kts 168°
2026-04-22 00:31 61.28486 -150.06245 2056 ft 115 kts 167°
2026-04-22 00:32 61.27727 -150.05837 1811 ft 110 kts 167°
2026-04-22 00:32 61.27014 -150.05451 1615 ft 105 kts 167°
2026-04-22 00:32 61.26314 -150.05046 1472 ft 106 kts 166°
2026-04-22 00:32 61.25580 -150.04621 1382 ft 112 kts 166°
2026-04-22 00:33 61.24812 -150.04186 1276 ft 116 kts 166°
2026-04-22 00:33 61.24022 -150.03728 1117 ft 119 kts 167°
2026-04-22 00:33 61.23209 -150.03249 931 ft 122 kts 167°
2026-04-22 00:33 61.22399 -150.02809 761 ft 123 kts 166°
2026-04-22 00:34 61.21572 -150.02364 592 ft 123 kts 166°
2026-04-22 00:34 61.20740 -150.01893 409 ft 124 kts 166°
2026-04-22 00:34 61.19909 -150.01420 267 ft 122 kts 166°
2026-04-22 00:34 61.19146 -150.00993 172 ft 99 kts 167°
2026-04-22 00:35 61.18567 -150.00661 157 ft 76 kts 170°
2026-04-22 00:35 61.18113 -150.00417 157 ft 58 kts 166°
2026-04-22 00:35 61.17943 -150.00317 156 ft 0 kts 165°
2026-04-22 00:36 61.17942 -150.00316 156 ft 1 kts 165°
2026-04-22 00:36 61.17915 -150.00285 156 ft 10 kts 133°
2026-04-22 00:36 61.17835 -150.00109 156 ft 19 kts 135°
2026-04-22 00:36 61.17780 -149.99996 156 ft 0 kts 136°
2026-04-22 00:37 61.17779 -149.99995 156 ft 0 kts 136°
2026-04-22 00:38 61.17779 -149.99994 156 ft 0 kts 136°
2026-04-22 00:39 61.17778 -149.99994 156 ft 0 kts 136°
2026-04-22 00:40 61.17778 -149.99993 156 ft 0 kts 136°
2026-04-22 00:42 61.17776 -149.99989 156 ft 2 kts 134°
2026-04-22 00:42 61.17757 -149.99949 156 ft 6 kts 134°
2026-04-22 00:43 61.17693 -149.99843 156 ft 19 kts 152°
2026-04-22 00:43 61.17554 -149.99750 156 ft 18 kts 165°
2026-04-22 00:43 61.17461 -149.99696 156 ft 13 kts 164°
2026-04-22 00:43 61.17349 -149.99636 156 ft 20 kts 167°
2026-04-22 00:44 61.17193 -149.99555 156 ft 26 kts 169°
2026-04-22 00:44 61.17025 -149.99453 156 ft 27 kts 163°
2026-04-22 00:44 61.16847 -149.99362 156 ft 25 kts 157°
2026-04-22 00:44 61.16786 -149.99098 156 ft 21 kts 91°
2026-04-22 00:45 61.16781 -149.98813 156 ft 19 kts 103°
2026-04-22 00:45 61.16738 -149.98611 156 ft 12 kts 161°
2026-04-22 00:45 61.16660 -149.98555 156 ft 12 kts 162°
2026-04-22 00:45 61.16580 -149.98494 156 ft 13 kts 159°
2026-04-22 00:46 61.16497 -149.98429 156 ft 13 kts 159°
2026-04-22 00:46 61.16412 -149.98363 156 ft 13 kts 160°
2026-04-22 00:46 61.16325 -149.98297 156 ft 13 kts 160°
2026-04-22 00:46 61.16236 -149.98231 156 ft 14 kts 161°
2026-04-22 00:47 61.16146 -149.98167 156 ft 14 kts 163°
2026-04-22 00:47 61.16095 -149.98236 156 ft 9 kts 294°
2026-04-22 00:47 61.16138 -149.98279 156 ft 6 kts 338°
2026-04-22 00:47 61.16163 -149.98299 156 ft 0 kts 340°
2026-04-22 00:48 61.16164 -149.98299 156 ft 0 kts 340°